Weather History for Panama City Tyndall AFB, FL

Change the Weather History Date:

Monday, April 15, 2013

  Actual Average Record
Temperature  
Mean Temperature 68 °F -  
Max Temperature 78 °F 73 °F 82 °F (2001)
Min Temperature 59 °F 57 °F 43 °F (2008)
Cooling Degree Days 4    
Growing Degree Days 18 (Base 50)    
Moisture  
Dew Point 66 °F    
Average Humidity 97    
Maximum Humidity 100    
Minimum Humidity 83    
Precipitation  
Precipitation 0.00 in - - ()
Sea Level Pressure  
Sea Level Pressure 29.99 in    
Wind  
Wind Speed 4 mph (East)    
Max Wind Speed 10 mph    
Max Gust Speed -    
Visibility 10 miles    
Events      
Averages and records for this station are not official NWS values.
T = Trace of Precipitation, MM = Missing Value Source: NWS Daily Summary

Daily Weather History Graph

Daily Weather History Graph

Search for Another Location

Airport:

Trip Planner

Search our weather history database for the weather conditions in past years. The results will help you decide how hot, cold, wet, or windy it might be!

Date:

Astronomy

Apr. 15, 2013 Rise Set
Actual Time 6:15 AM CDT 7:09 PM CDT
Civil Twilight 5:50 AM CDT 7:34 PM CDT
Nautical Twilight 5:21 AM CDT 8:03 PM CDT
Astronomical Twilight 4:51 AM CDT 8:33 PM CDT
Moon 9:52 AM CDT (4/15) 11:55 PM CDT (4/15)
Length of Visible Light 13h 43m
Length of Day
12h 54m
Waxing Crescent, 25% of the Moon is Illuminated
Apr 15
Waxing Crescent
Apr 18
First Quarter
Apr 25
Full
May 2
Last Quarter
May 9
New

Hourly Weather History & Observations

Time (CDT) Temp. Dew Point Humidity Pressure Visibility Wind Dir Wind Speed Gust Speed Precip Events Conditions
12:58 AM 61.2 °F 61.2 °F 100% 29.89 in 10.0 mi NE 3.5 mph - 0.00 in   Light Drizzle
1:58 AM 60.3 °F 60.3 °F 100% 29.88 in 10.0 mi Calm Calm - 0.00 in   Light Drizzle
2:58 AM 59.5 °F 59.5 °F 100% 29.88 in 10.0 mi Calm Calm - 0.00 in   Light Drizzle
3:58 AM 59.7 °F 59.7 °F 100% 29.91 in 10.0 mi NNE 3.5 mph - 0.00 in   Light Drizzle
4:03 AM 59.0 °F 59.0 °F 100% 29.90 in 10.0 mi ENE 2.3 mph - N/A   Light Drizzle
4:13 AM 59.0 °F 59.0 °F 100% 29.91 in 10.0 mi ENE 3.5 mph - N/A   Light Drizzle
4:58 AM 60.8 °F 60.8 °F 100% 29.93 in 10.0 mi ENE 3.5 mph - 0.00 in   Light Drizzle
5:18 AM 60.8 °F 60.8 °F 100% 29.93 in 10.0 mi NE 3.5 mph - N/A   Light Drizzle
5:47 AM 60.8 °F 60.8 °F 100% 29.94 in 10.0 mi ENE 4.6 mph - N/A   Light Drizzle
5:58 AM 60.1 °F 60.1 °F 100% 29.96 in 10.0 mi ENE 5.8 mph - 0.00 in   Light Drizzle
6:13 AM 59.0 °F 59.0 °F 100% 29.96 in 10.0 mi East 5.8 mph - N/A   Light Drizzle
6:33 AM 60.8 °F 60.8 °F 100% 29.96 in 10.0 mi ENE 4.6 mph - N/A   Scattered Clouds
6:58 AM 60.3 °F 60.3 °F 100% 29.99 in 10.0 mi ENE 4.6 mph - 0.00 in   Scattered Clouds
7:03 AM 60.8 °F 60.8 °F 100% 29.98 in 10.0 mi ENE 3.5 mph - N/A   Light Drizzle
7:12 AM 60.8 °F 60.8 °F 100% 29.98 in 10.0 mi ENE 5.8 mph - N/A   Scattered Clouds
7:18 AM 60.8 °F 60.8 °F 100% 29.98 in 10.0 mi ENE 5.8 mph - N/A   Light Drizzle
7:40 AM 60.8 °F 60.8 °F 100% 29.99 in 10.0 mi ENE 5.8 mph - N/A   Mostly Cloudy
7:58 AM 62.4 °F 62.4 °F 100% 30.00 in 10.0 mi East 4.6 mph - 0.00 in   Overcast
8:58 AM 65.3 °F 65.3 °F 100% 30.01 in 10.0 mi ENE 5.8 mph - 0.00 in   Overcast
9:58 AM 68.7 °F 68.0 °F 98% 30.02 in 10.0 mi East 4.6 mph - 0.00 in   Overcast
10:03 AM 69.8 °F 68.0 °F 94% 30.01 in 10.0 mi ENE 3.5 mph - N/A   Overcast
10:23 AM 71.6 °F 69.8 °F 94% 30.01 in 10.0 mi East 6.9 mph - N/A   Mostly Cloudy
10:33 AM 71.6 °F 69.8 °F 94% 30.02 in 10.0 mi Variable 5.8 mph - N/A   Mostly Cloudy
10:58 AM 73.0 °F 70.7 °F 92% 30.03 in 10.0 mi East 3.5 mph - N/A   Overcast
11:43 AM 75.2 °F 71.6 °F 89% 30.02 in 9.0 mi Variable 3.5 mph - N/A   Mostly Cloudy
11:53 AM 75.2 °F 71.6 °F 89% 30.02 in 8.0 mi Variable 1.2 mph - N/A   Scattered Clouds
11:58 AM 75.7 °F 71.4 °F 86% 30.02 in 10.0 mi Variable 4.6 mph - 0.00 in   Scattered Clouds
12:58 PM 78.3 °F 72.9 °F 83% 30.02 in 10.0 mi South 5.8 mph - N/A   Partly Cloudy
1:58 PM 77.4 °F 72.0 °F 83% 30.02 in 10.0 mi SSW 6.9 mph - N/A   Scattered Clouds
2:58 PM 75.2 °F 71.6 °F 89% 30.02 in 10.0 mi South 9.2 mph - N/A   Scattered Clouds
3:58 PM 75.2 °F 72.0 °F 90% 30.01 in 10.0 mi South 9.2 mph - N/A   Scattered Clouds
4:58 PM 74.3 °F 71.6 °F 91% 30.01 in 10.0 mi South 8.1 mph - N/A   Partly Cloudy
5:58 PM 72.3 °F 70.5 °F 94% 30.02 in 9.0 mi SSE 10.4 mph - N/A   Mostly Cloudy
6:58 PM 71.2 °F 70.3 °F 97% 30.02 in 8.0 mi SSE 8.1 mph - N/A   Mostly Cloudy
7:53 PM 71.6 °F 71.6 °F 100% 30.03 in 10.0 mi SE 5.8 mph - N/A   Overcast
7:58 PM 70.9 °F 70.9 °F 100% 30.04 in 10.0 mi SE 5.8 mph - N/A   Mostly Cloudy
8:58 PM 69.6 °F 69.6 °F 100% 30.07 in 10.0 mi ESE 2.3 mph - N/A   Partly Cloudy
9:58 PM 68.5 °F 68.5 °F 100% 30.08 in 10.0 mi ESE 4.6 mph - N/A   Clear
10:58 PM 69.1 °F 69.1 °F 100% 30.09 in 10.0 mi ESE 3.5 mph - N/A   Mostly Cloudy
11:58 PM 68.7 °F 68.5 °F 99% 30.09 in 10.0 mi ENE 2.3 mph - N/A   Mostly Cloudy